Time,TemperatureF,DewpointF,PressureIn,WindDirection,WindDirectionDegrees,WindSpeedMPH,WindSpeedGustMPH,Humidity,HourlyPrecipIn,Conditions,Clouds,dailyrainin,SolarRadiationWatts/m^2,SoftwareType,DateUTC
2013-02-08 00:01:00,24.0,14.0,-100.00,WNW,298,5.0,8.0,65,0.00,,,0.00,0.000000,,2013-02-08 07:01:00,
2013-02-08 00:32:00,24.0,15.0,-100.00,WNW,284,3.0,7.0,68,0.00,,,0.00,0.000000,,2013-02-08 07:32:00,
2013-02-08 00:42:00,24.0,15.0,-100.00,WNW,284,3.0,7.0,68,0.00,,,0.00,0.000000,,2013-02-08 07:42:00,
2013-02-08 00:52:00,24.0,15.0,-100.00,WNW,284,3.0,7.0,68,0.00,,,0.00,0.000000,,2013-02-08 07:52:00,
2013-02-08 01:01:00,24.0,15.0,-100.00,WNW,284,3.0,7.0,68,0.00,,,0.00,0.000000,,2013-02-08 08:01:00,
2013-02-08 01:32:00,23.0,14.0,-100.00,NNW,346,4.0,5.0,68,0.00,,,0.00,0.000000,,2013-02-08 08:32:00,
2013-02-08 01:42:00,23.0,14.0,-100.00,NNW,346,4.0,5.0,68,0.00,,,0.00,0.000000,,2013-02-08 08:42:00,
2013-02-08 01:52:00,23.0,14.0,-100.00,NNW,346,4.0,5.0,68,0.00,,,0.00,0.000000,,2013-02-08 08:52:00,
2013-02-08 02:02:00,23.0,14.0,-100.00,NNW,346,4.0,5.0,68,0.00,,,0.00,0.000000,,2013-02-08 09:02:00,
2013-02-08 02:32:00,22.0,13.0,-100.00,East,85,2.0,9.0,69,-99.99,,,0.00,0.000000,,2013-02-08 09:32:00,
2013-02-08 02:42:00,22.0,13.0,-100.00,East,85,2.0,9.0,69,-99.99,,,0.00,0.000000,,2013-02-08 09:42:00,
2013-02-08 02:52:00,22.0,13.0,-100.00,East,85,2.0,9.0,69,-99.99,,,0.00,0.000000,,2013-02-08 09:52:00,
2013-02-08 03:01:00,22.0,13.0,-100.00,East,85,2.0,9.0,69,-99.99,,,0.00,0.000000,,2013-02-08 10:01:00,
2013-02-08 03:32:00,20.0,13.0,-100.00,NNW,348,6.0,7.0,74,0.00,,,0.00,0.000000,,2013-02-08 10:32:00,
2013-02-08 03:42:00,20.0,13.0,-100.00,NNW,348,6.0,7.0,74,0.00,,,0.00,0.000000,,2013-02-08 10:42:00,
2013-02-08 03:52:00,20.0,13.0,-100.00,NNW,348,6.0,7.0,74,0.00,,,0.00,0.000000,,2013-02-08 10:52:00,
2013-02-08 04:01:00,20.0,13.0,-100.00,NNW,348,6.0,7.0,74,0.00,,,0.00,0.000000,,2013-02-08 11:01:00,
2013-02-08 04:32:00,21.0,14.0,-100.00,North,6,4.0,6.0,74,0.00,,,-99.99,0.000000,,2013-02-08 11:32:00,
2013-02-08 04:42:00,21.0,14.0,-100.00,North,6,4.0,6.0,74,0.00,,,-99.99,0.000000,,2013-02-08 11:42:00,
2013-02-08 04:52:00,21.0,14.0,-100.00,North,6,4.0,6.0,74,0.00,,,-99.99,0.000000,,2013-02-08 11:52:00,
2013-02-08 05:01:00,21.0,14.0,-100.00,North,6,4.0,6.0,74,0.00,,,-99.99,0.000000,,2013-02-08 12:01:00,
2013-02-08 05:33:00,21.0,14.0,-100.00,WSW,256,3.0,7.0,74,0.00,,,0.00,0.000000,,2013-02-08 12:33:00,
2013-02-08 05:42:00,21.0,14.0,-100.00,WSW,256,3.0,7.0,74,0.00,,,0.00,0.000000,,2013-02-08 12:42:00,
2013-02-08 05:52:00,21.0,14.0,-100.00,WSW,256,3.0,7.0,74,0.00,,,0.00,0.000000,,2013-02-08 12:52:00,
2013-02-08 06:01:00,21.0,14.0,-100.00,WSW,256,3.0,7.0,74,0.00,,,0.00,0.000000,,2013-02-08 13:01:00,
2013-02-08 06:32:00,20.0,13.0,-100.00,NE,53,3.0,4.0,74,0.00,,,0.00,0.000000,,2013-02-08 13:32:00,
2013-02-08 06:42:00,20.0,13.0,-100.00,NE,53,3.0,4.0,74,0.00,,,0.00,0.000000,,2013-02-08 13:42:00,
2013-02-08 06:52:00,20.0,13.0,-100.00,NE,53,3.0,4.0,74,0.00,,,0.00,0.000000,,2013-02-08 13:52:00,
2013-02-08 07:01:00,20.0,13.0,-100.00,NE,53,3.0,4.0,74,0.00,,,0.00,0.000000,,2013-02-08 14:01:00,
2013-02-08 07:32:00,20.0,13.0,-100.00,SSE,147,2.0,5.0,73,0.00,,,0.00,0.000000,,2013-02-08 14:32:00,
2013-02-08 07:42:00,20.0,13.0,-100.00,SSE,147,2.0,5.0,73,0.00,,,0.00,0.000000,,2013-02-08 14:42:00,
2013-02-08 07:52:00,20.0,13.0,-100.00,SSE,147,2.0,5.0,73,0.00,,,0.00,0.000000,,2013-02-08 14:52:00,
2013-02-08 08:01:00,20.0,13.0,-100.00,SSE,147,2.0,5.0,73,0.00,,,0.00,0.000000,,2013-02-08 15:01:00,
2013-02-08 08:32:00,19.0,13.0,-100.00,SW,230,2.0,5.0,77,0.00,,,0.00,3.000000,,2013-02-08 15:32:00,
2013-02-08 08:42:00,19.0,13.0,-100.00,SW,230,2.0,5.0,77,0.00,,,0.00,3.000000,,2013-02-08 15:42:00,
2013-02-08 08:52:00,19.0,13.0,-100.00,SW,230,2.0,5.0,77,0.00,,,0.00,3.000000,,2013-02-08 15:52:00,
2013-02-08 09:01:00,19.0,13.0,-100.00,SW,230,2.0,5.0,77,0.00,,,0.00,3.000000,,2013-02-08 16:01:00,
2013-02-08 09:32:00,24.0,14.0,-100.00,SW,220,2.0,6.0,64,0.00,,,0.00,76.000000,,2013-02-08 16:32:00,
2013-02-08 09:42:00,24.0,14.0,-100.00,SW,220,2.0,6.0,64,0.00,,,0.00,76.000000,,2013-02-08 16:42:00,
2013-02-08 09:52:00,24.0,14.0,-100.00,SW,220,2.0,6.0,64,0.00,,,0.00,76.000000,,2013-02-08 16:52:00,
2013-02-08 10:03:00,24.0,14.0,-100.00,SW,220,2.0,6.0,64,0.00,,,0.00,76.000000,,2013-02-08 17:03:00,
2013-02-08 10:33:00,28.0,16.0,-100.00,North,3,5.0,11.0,61,0.00,,,0.00,285.000000,,2013-02-08 17:33:00,
2013-02-08 10:42:00,28.0,16.0,-100.00,North,3,5.0,11.0,61,0.00,,,0.00,285.000000,,2013-02-08 17:42:00,
2013-02-08 10:52:00,28.0,16.0,-100.00,North,3,5.0,11.0,61,0.00,,,0.00,285.000000,,2013-02-08 17:52:00,
2013-02-08 11:01:00,28.0,16.0,-100.00,North,3,5.0,11.0,61,0.00,,,0.00,285.000000,,2013-02-08 18:01:00,
2013-02-08 11:36:00,29.0,16.0,-100.00,North,7,8.0,11.0,57,-99.99,,,0.00,391.000000,,2013-02-08 18:36:00,
2013-02-08 11:44:00,29.0,16.0,-100.00,North,7,8.0,11.0,57,-99.99,,,0.00,391.000000,,2013-02-08 18:44:00,
2013-02-08 11:52:00,29.0,16.0,-100.00,North,7,8.0,11.0,57,-99.99,,,0.00,391.000000,,2013-02-08 18:52:00,
2013-02-08 12:01:00,29.0,16.0,-100.00,North,7,8.0,11.0,57,-99.99,,,0.00,391.000000,,2013-02-08 19:01:00,
2013-02-08 12:33:00,32.0,16.0,-100.00,North,355,6.0,10.0,51,-99.99,,,0.00,461.000000,,2013-02-08 19:33:00,
2013-02-08 12:42:00,32.0,16.0,-100.00,North,355,6.0,10.0,51,-99.99,,,0.00,461.000000,,2013-02-08 19:42:00,
2013-02-08 12:52:00,32.0,16.0,-100.00,North,355,6.0,10.0,51,-99.99,,,0.00,461.000000,,2013-02-08 19:52:00,
2013-02-08 13:01:00,32.0,16.0,-100.00,North,355,6.0,10.0,51,-99.99,,,0.00,461.000000,,2013-02-08 20:01:00,
2013-02-08 13:32:00,32.0,19.0,-100.00,SSW,207,7.0,11.0,57,-99.99,,,0.00,505.000000,,2013-02-08 20:32:00,
2013-02-08 13:42:00,32.0,19.0,-100.00,SSW,207,7.0,11.0,57,-99.99,,,0.00,505.000000,,2013-02-08 20:42:00,
2013-02-08 13:52:00,32.0,19.0,-100.00,SSW,207,7.0,11.0,57,-99.99,,,0.00,505.000000,,2013-02-08 20:52:00,
2013-02-08 14:01:00,32.0,19.0,-100.00,SSW,207,7.0,11.0,57,-99.99,,,0.00,505.000000,,2013-02-08 21:01:00,
2013-02-08 14:33:00,33.0,21.0,-100.00,SW,216,7.0,14.0,60,0.00,,,0.00,530.000000,,2013-02-08 21:33:00,
2013-02-08 14:42:00,33.0,21.0,-100.00,SW,216,7.0,14.0,60,0.00,,,0.00,530.000000,,2013-02-08 21:42:00,
2013-02-08 14:52:00,33.0,21.0,-100.00,SW,216,7.0,14.0,60,0.00,,,0.00,530.000000,,2013-02-08 21:52:00,
2013-02-08 15:01:00,33.0,21.0,-100.00,SW,216,7.0,14.0,60,0.00,,,0.00,530.000000,,2013-02-08 22:01:00,
2013-02-08 15:32:00,29.0,19.0,-100.00,WSW,257,5.0,13.0,67,-99.99,,,0.00,262.000000,,2013-02-08 22:32:00,
2013-02-08 15:42:00,29.0,19.0,-100.00,WSW,257,5.0,13.0,67,-99.99,,,0.00,262.000000,,2013-02-08 22:42:00,
2013-02-08 15:52:00,29.0,19.0,-100.00,WSW,257,5.0,13.0,67,-99.99,,,0.00,262.000000,,2013-02-08 22:52:00,
2013-02-08 16:01:00,29.0,19.0,-100.00,WSW,257,5.0,13.0,67,-99.99,,,0.00,262.000000,,2013-02-08 23:01:00,
2013-02-08 16:32:00,27.0,19.0,-100.00,WSW,249,5.0,10.0,70,0.00,,,0.00,135.000000,,2013-02-08 23:32:00,
2013-02-08 16:42:00,27.0,19.0,-100.00,WSW,249,5.0,10.0,70,0.00,,,0.00,135.000000,,2013-02-08 23:42:00,
2013-02-08 16:52:00,27.0,19.0,-100.00,WSW,249,5.0,10.0,70,0.00,,,0.00,135.000000,,2013-02-08 23:52:00,
2013-02-08 17:01:00,27.0,19.0,-100.00,WSW,249,5.0,10.0,70,0.00,,,0.00,135.000000,,2013-02-09 00:01:00,
2013-02-08 17:32:00,27.0,19.0,-100.00,West,269,4.0,10.0,70,0.00,,,0.00,58.000000,,2013-02-09 00:32:00,
2013-02-08 17:42:00,27.0,19.0,-100.00,West,269,4.0,10.0,70,0.00,,,0.00,58.000000,,2013-02-09 00:42:00,
2013-02-08 17:52:00,27.0,19.0,-100.00,West,269,4.0,10.0,70,0.00,,,0.00,58.000000,,2013-02-09 00:52:00,
2013-02-08 18:01:00,27.0,19.0,-100.00,West,269,4.0,10.0,70,0.00,,,0.00,58.000000,,2013-02-09 01:01:00,
2013-02-08 18:32:00,25.0,15.0,-100.00,NE,35,8.0,12.0,65,0.00,,,-99.99,25.000000,,2013-02-09 01:32:00,
2013-02-08 18:42:00,25.0,15.0,-100.00,NE,35,8.0,12.0,65,0.00,,,-99.99,25.000000,,2013-02-09 01:42:00,
2013-02-08 18:52:00,25.0,15.0,-100.00,NE,35,8.0,12.0,65,0.00,,,-99.99,25.000000,,2013-02-09 01:52:00,
2013-02-08 19:01:00,25.0,15.0,-100.00,NE,35,8.0,12.0,65,0.00,,,-99.99,25.000000,,2013-02-09 02:01:00,
2013-02-08 19:32:00,24.0,14.0,-100.00,NNE,15,6.0,11.0,64,0.00,,,0.00,0.000000,,2013-02-09 02:32:00,
2013-02-08 19:42:00,24.0,14.0,-100.00,NNE,15,6.0,11.0,64,0.00,,,0.00,0.000000,,2013-02-09 02:42:00,
2013-02-08 19:52:00,24.0,14.0,-100.00,NNE,15,6.0,11.0,64,0.00,,,0.00,0.000000,,2013-02-09 02:52:00,
2013-02-08 20:01:00,24.0,14.0,-100.00,NNE,15,6.0,11.0,64,0.00,,,0.00,0.000000,,2013-02-09 03:01:00,
2013-02-08 20:32:00,24.0,13.0,-100.00,North,357,9.0,15.0,62,0.00,,,0.00,0.000000,,2013-02-09 03:32:00,
2013-02-08 20:42:00,24.0,13.0,-100.00,North,357,9.0,15.0,62,0.00,,,0.00,0.000000,,2013-02-09 03:42:00,
2013-02-08 20:52:00,24.0,13.0,-100.00,North,357,9.0,15.0,62,0.00,,,0.00,0.000000,,2013-02-09 03:52:00,
2013-02-08 21:02:00,24.0,13.0,-100.00,North,357,9.0,15.0,62,0.00,,,0.00,0.000000,,2013-02-09 04:02:00,
2013-02-08 21:32:00,23.0,12.0,-100.00,North,352,7.0,14.0,61,0.00,,,0.00,0.000000,,2013-02-09 04:32:00,
2013-02-08 21:42:00,23.0,12.0,-100.00,North,352,7.0,14.0,61,0.00,,,0.00,0.000000,,2013-02-09 04:42:00,
2013-02-08 21:52:00,23.0,12.0,-100.00,North,352,7.0,14.0,61,0.00,,,0.00,0.000000,,2013-02-09 04:52:00,
2013-02-08 22:02:00,23.0,12.0,-100.00,North,352,7.0,14.0,61,0.00,,,0.00,0.000000,,2013-02-09 05:02:00,
2013-02-08 22:32:00,21.0,10.0,-100.00,North,350,7.0,12.0,62,0.00,,,-99.99,0.000000,,2013-02-09 05:32:00,
2013-02-08 22:42:00,21.0,10.0,-100.00,North,350,7.0,12.0,62,0.00,,,-99.99,0.000000,,2013-02-09 05:42:00,
2013-02-08 22:52:00,21.0,10.0,-100.00,North,350,7.0,12.0,62,0.00,,,-99.99,0.000000,,2013-02-09 05:52:00,
2013-02-08 23:01:00,21.0,10.0,-100.00,North,350,7.0,12.0,62,0.00,,,-99.99,0.000000,,2013-02-09 06:01:00,
2013-02-08 23:32:00,21.0,10.0,-100.00,North,350,6.0,18.0,61,0.00,,,0.00,0.000000,,2013-02-09 06:32:00,
2013-02-08 23:42:00,21.0,10.0,-100.00,North,350,6.0,18.0,61,0.00,,,0.00,0.000000,,2013-02-09 06:42:00,
2013-02-08 23:52:00,21.0,10.0,-100.00,North,350,6.0,18.0,61,0.00,,,0.00,0.000000,,2013-02-09 06:52:00,